Temperature
17 16 15 15 15 14 14 14 14 14 14 14 14 13 13 13 13 13 13 13 13 13 13 13 13 13 13 13 13 13 13 13 14 14 14 14 14 14 14 14 14 14 15
17 16 16 15 15 15 15 14 14 14 14 14 14 14 13 13 13 13 13 13 13 13 13 13 13 13 13 13 13 13 13 13 13 14 14 14 14 14 14 14 14 14 14
17 17 16 15 15 15 15 15 14 14 14 14 14 14 14 13 13 13 13 13 13 13 13 13 13 13 13 13 13 13 13 13 13 13 13 13 13 13 14 14 14 14 14
17 17 16 16 15 15 15 15 15 14 14 14 14 14 14 14 13 13 13 13 13 13 13 13 13 13 13 13 13 13 13 13 13 13 13 13 13 13 13 13 14 14 14
18 17 17 16 16 15 15 15 15 15 15 14 14 14 14 14 14 14 14 13 13 13 13 13 13 13 13 13 13 13 13 13 13 13 13 13 13 13 13 13 13 13 14
18 17 17 16 16 16 15 15 15 15 15 15 15 14 14 14 14 14 14 14 14 13 13 13 13 13 13 13 13 13 13 13 13 13 13 13 13 13 13 13 13 13 13
18 18 17 17 16 16 16 15 15 15 15 15 15 15 15 14 14 14 14 14 14 13 13 13 13 13 13 13 13 13 13 13 12 12 12 12 12 12 12 12 12 12 13
19 18 18 17 16 16 16 16 15 15 15 15 15 15 15 15 14 14 14 14 14 14 13 13 13 13 13 13 13 13 13 12 12 12 12 12 12 12 12 12 12 12 12
19 19 18 17 17 16 16 16 16 16 15 15 15 15 15 15 14 14 14 14 14 14 13 13 13 13 13 13 13 13 13 12 12 12 12 12 12 12 12 12 12 12 12
20 19 19 18 17 17 16 16 16 16 16 15 15 15 15 15 15 14 14 14 14 13 13 13 13 13 13 13 13 13 13 12 12 12 12 12 12 12 12 11 11 11 11
20 19 19 18 18 17 17 16 16 16 16 15 15 15 15 15 15 14 14 14 14 13 13 13 13 13 13 13 13 12 12 12 12 12 12 12 11 11 11 11 11 11 11
19 19 19 19 18 18 17 17 16 16 16 15 15 15 15 15 14 14 14 14 13 13 13 13 13 13 12 12 12 12 12 12 12 12 12 11 11 11 11 11 11 11 11
19 19 19 19 18 18 18 17 17 16 16 15 15 15 15 15 14 14 14 13 13 13 13 13 12 12 12 12 12 12 12 11 11 11 11 11 11 11 10 10 10 10 10
18 18 18 18 18 18 18 17 17 16 16 16 15 15 15 15 15 14 14 13 13 13 12 12 12 12 12 12 12 11 11 11 11 11 11 11 10 10 10 10 10 10 10
17 17 17 18 18 18 18 18 17 17 17 16 16 16 15 15 15 14 14 13 13 12 12 12 12 11 11 11 11 11 11 11 11 10 10 10 10 10 10 10 10 10 10
15 16 16 17 17 17 18 17 17 17 16 16 16 15 15 15 14 14 13 13 12 12 12 12 11 11 11 11 11 10 10 10 10 10 10 10 9 9 9 9 9 9 9
14 15 15 16 16 17 17 17 17 17 16 16 16 15 15 14 14 14 13 13 12 12 11 11 11 11 11 10 10 10 10 10 10 9 9 9 9 9 8 8 8 8 8
13 14 14 15 15 16 16 16 16 16 16 16 16 15 15 14 14 13 13 12 12 12 11 11 11 11 10 10 10 10 9 9 9 9 9 8 8 8 8 7 7 7 7
12 12 13 14 14 15 15 15 16 16 16 16 15 15 14 14 13 13 13 12 12 12 11 11 11 10 10 10 9 9 9 9 8 8 8 8 7 7 7 6 6 6 6
11 11 12 12 13 13 14 14 14 15 15 15 15 15 14 14 13 13 13 12 12 12 11 11 10 10 9 9 9 8 8 8 8 7 7 7 6 6 6 6 5 5 5
10 10 11 11 12 12 13 13 14 14 14 14 14 14 14 14 14 13 13 12 12 11 11 10 10 9 9 9 8 8 8 7 7 7 6 6 6 5 5 5 5 4 4
9 9 10 10 11 11 12 12 13 13 13 14 14 13 13 13 13 13 12 12 11 11 11 10 10 9 9 8 8 8 7 7 6 6 6 5 5 5 4 4 4 4 4
8 8 9 9 10 10 11 11 12 12 13 13 13 13 13 13 12 12 12 11 11 10 10 9 9 8 8 7 7 7 7 6 6 5 5 5 4 4 4 4 4 3 3
7 7 8 8 9 9 10 10 11 11 12 12 12 12 12 12 12 12 11 10 10 9 9 8 8 8 7 7 6 6 6 5 5 5 4 4 4 4 4 3 3 3 3
6 7 7 7 8 8 9 9 10 10 11 11 11 12 12 12 11 11 10 10 9 9 8 8 7 7 6 6 6 5 5 5 4 4 4 4 4 3 3 3 3 2 2
6 6 6 7 7 8 8 8 9 10 10 10 11 11 11 11 11 10 9 9 8 8 7 7 6 6 6 5 5 5 4 4 4 4 4 3 3 3 3 3 2 2 1
Wind_Speed
9 7 7 7 6 6 5 5 5 4 4 4 3 3 2 2 2 1 1 1 1 1 1 2 1 1 2 2 2 2 2 2 2 1 1 1 1 1 1 1 1 2 4
9 8 8 7 6 6 6 6 5 4 4 4 4 3 3 3 3 3 2 1 1 1 0 2 1 2 2 2 2 2 1 2 3 1 1 2 1 1 1 1 1 1 3
9 9 8 7 7 7 7 7 6 5 4 4 4 4 3 3 3 3 3 2 2 1 2 3 3 3 2 1 2 1 1 1 2 2 1 1 1 1 1 2 2 2 3
10 9 9 9 9 8 8 7 7 6 5 5 4 4 4 4 4 3 3 2 1 1 2 3 3 4 4 3 2 2 2 2 1 1 0 1 1 2 1 1 2 2 3
11 10 11 9 8 8 8 7 7 6 6 6 5 4 4 4 4 5 3 3 2 1 1 2 3 5 5 4 3 3 2 2 1 1 0 1 1 1 1 1 1 2 3
12 12 10 9 8 8 8 8 7 7 6 5 6 6 5 5 7 8 6 4 3 3 2 1 2 3 3 3 3 4 4 3 3 2 1 1 2 2 1 1 0 1 3
13 12 11 10 9 9 9 8 8 8 6 6 6 6 6 7 9 9 9 5 4 4 4 3 2 2 3 2 1 1 2 3 4 4 3 3 2 3 1 1 1 2 3
13 13 12 11 10 9 9 9 9 7 7 7 7 7 7 8 11 10 10 6 4 4 4 5 4 3 3 4 2 1 1 2 2 3 4 4 4 3 3 2 2 2 3
14 14 13 13 11 10 10 10 8 7 7 7 6 8 8 8 11 11 9 4 3 4 4 5 5 5 6 7 4 3 1 2 3 3 4 5 5 5 3 1 0 1 2
16 15 14 13 13 12 12 10 7 7 8 8 7 7 8 8 10 12 11 5 4 4 3 3 6 6 6 8 6 4 3 2 1 2 2 3 3 2 2 3 3 2 1
13 12 12 13 14 13 11 9 8 8 7 7 7 7 7 9 10 12 12 7 6 5 4 4 4 5 6 7 7 5 5 3 1 1 1 2 2 2 2 0 2 3 2
8 11 13 14 13 12 11 10 9 9 8 7 6 6 5 5 8 10 13 12 9 6 5 5 5 6 6 6 5 5 5 4 3 2 2 2 2 2 2 2 1 1 3
6 10 12 13 13 11 12 12 8 8 8 7 7 6 5 3 4 9 12 13 12 7 5 7 7 7 5 4 4 5 5 4 3 3 2 1 0 1 1 2 3 2 2
6 8 10 11 11 11 10 10 10 10 9 8 8 7 6 4 4 4 5 6 8 6 4 5 5 5 5 4 3 3 3 3 4 3 2 1 1 2 2 2 2 2 2
7 7 7 9 10 11 10 9 11 11 12 12 10 9 8 8 9 11 9 7 7 6 6 3 3 3 3 3 2 3 3 3 3 2 3 2 2 2 2 2 2 2 2
7 6 6 6 7 8 8 4 2 5 10 14 13 12 9 10 12 13 13 12 12 12 8 5 5 5 5 5 5 4 3 3 3 3 3 3 2 2 2 2 2 3 2
8 7 5 6 7 8 9 10 7 1 1 6 12 14 12 13 14 13 13 12 12 13 6 6 6 6 6 5 5 5 4 3 3 4 4 3 3 2 2 2 2 2 2
9 8 7 6 6 8 9 10 10 10 7 4 5 11 13 15 15 14 14 10 6 7 6 6 7 6 6 6 6 5 5 4 4 4 4 3 3 3 2 2 2 1 1
10 7 7 6 6 7 7 8 9 10 9 7 5 6 10 12 12 13 12 7 7 7 6 6 6 7 6 6 6 6 6 5 5 4 4 4 3 3 3 2 1 2 1
9 14 11 7 5 5 6 7 9 10 10 10 10 9 8 8 7 8 7 6 7 7 7 7 7 7 7 7 6 6 6 5 5 4 4 4 3 3 3 2 1 1 0
8 10 14 9 6 7 7 9 9 10 11 11 11 12 16 11 11 11 10 9 8 9 8 8 7 7 7 7 7 7 7 6 5 5 4 4 3 3 2 2 1 0 0
8 8 8 8 7 7 8 9 9 10 12 12 8 11 19 10 9 10 9 9 8 7 8 8 8 7 7 8 8 7 7 6 6 5 5 4 3 3 2 1 0 0 1
8 9 10 9 8 9 9 8 9 10 10 11 11 11 13 12 11 10 10 9 8 8 8 8 8 7 6 6 6 7 8 7 6 7 6 4 3 2 2 1 1 1 2
8 10 11 10 9 8 8 8 9 9 10 11 12 13 13 13 12 11 10 9 9 9 8 8 9 10 11 8 7 9 9 10 9 7 7 5 4 3 2 2 2 2 3
9 10 10 10 10 9 9 8 8 9 10 11 12 12 12 12 11 11 10 10 11 10 11 10 8 10 12 12 11 11 14 14 12 9 6 4 4 3 2 2 2 3 3
10 11 10 10 10 9 9 9 9 9 9 10 11 12 12 12 12 11 11 11 11 10 10 9 10 12 13 12 14 16 16 14 12 10 7 4 4 3 2 2 3 3 4
Wind_Direction
188 191 189 196 198 195 194 203 202 210 212 211 212 210 208 199 178 141 151 108 91 47 55 104 105 112 96 89 91 98 112 133 155 280 306 329 360 355 350 329 274 255 264
189 190 196 201 196 195 202 208 205 210 216 218 209 195 199 192 177 164 176 158 145 140 148 131 136 121 96 91 94 94 108 145 153 191 316 340 338 308 303 298 304 285 279
186 189 196 200 200 203 207 210 209 210 216 213 197 193 189 181 178 180 178 179 190 198 188 172 174 144 128 122 117 116 106 100 134 154 264 319 327 336 360 342 331 322 308
186 189 197 204 205 207 207 207 208 205 203 204 201 199 191 184 180 181 179 180 205 224 198 182 179 169 169 160 145 144 126 98 103 124 194 319 316 327 27 2 343 337 321
188 195 203 206 205 204 204 208 207 204 206 199 192 196 195 189 192 183 180 173 175 193 202 211 203 189 179 172 164 170 145 128 115 109 77 359 329 341 328 305 312 319 314
193 201 203 199 200 203 206 206 202 204 205 195 195 196 202 209 200 188 176 172 178 184 198 219 211 194 189 186 174 172 168 162 170 166 183 219 265 261 251 254 293 360 316
199 202 200 197 200 205 205 200 202 203 200 200 205 202 210 221 212 197 186 172 181 193 197 195 198 182 181 176 201 188 192 196 186 173 184 216 227 225 203 239 234 230 249
201 203 201 198 202 202 200 203 206 201 200 204 208 208 213 227 221 210 196 181 192 205 203 197 191 203 195 182 179 172 252 279 240 201 198 219 225 226 207 203 214 256 283
205 206 204 199 199 198 201 207 206 201 206 208 208 207 212 230 225 214 194 179 201 220 221 208 195 203 212 184 164 170 206 309 302 245 224 235 245 246 208 147 112 41 321
213 210 204 198 197 200 203 203 200 199 208 210 216 214 214 225 226 214 194 180 196 214 224 228 219 209 208 183 171 171 187 246 311 6 356 329 308 301 235 185 182 179 234
220 209 202 200 200 201 200 197 196 198 204 210 218 222 220 223 224 215 197 186 194 197 203 216 224 211 201 187 176 181 199 185 155 93 23 2 10 15 12 128 180 175 187
228 210 206 203 203 202 196 197 194 193 199 209 214 225 229 229 221 217 206 196 186 183 199 207 210 205 196 185 178 180 167 141 122 102 75 42 22 3 347 354 348 211 211
244 220 214 207 205 197 194 196 193 192 198 205 204 214 223 223 221 211 201 195 188 183 196 200 199 193 182 175 173 164 147 135 129 125 129 140 303 326 3 13 10 13 13
271 241 221 210 207 201 197 196 196 197 201 203 203 207 208 207 208 194 181 182 183 180 176 176 170 160 147 145 140 135 135 146 146 147 152 140 57 47 39 32 30 19 34
295 269 239 219 209 204 201 200 200 204 201 200 204 196 192 206 212 194 179 181 180 176 151 135 136 139 145 140 131 129 128 125 125 125 125 115 93 77 46 29 46 50 57
309 297 260 230 215 202 192 189 206 207 212 207 198 188 198 197 184 188 190 188 181 167 152 162 172 171 173 170 160 147 138 138 137 131 125 127 121 110 81 42 52 62 52
301 296 283 246 220 205 196 192 192 181 143 197 194 187 183 178 179 181 181 178 177 166 165 175 176 177 174 169 164 157 156 153 142 132 127 124 118 106 94 74 60 58 44
307 294 290 256 229 216 208 203 195 189 188 195 198 190 181 177 175 173 165 149 162 173 176 175 177 173 168 166 163 155 146 141 133 129 125 120 116 110 101 87 72 59 30
315 303 291 277 243 223 214 206 199 195 191 180 167 182 182 174 173 175 165 167 174 179 178 173 169 166 163 159 155 149 146 144 138 132 127 123 120 113 107 97 77 33 44
312 309 306 287 259 232 214 207 204 199 193 190 191 186 168 159 174 183 185 179 176 176 173 171 167 162 159 155 150 145 140 138 137 131 131 129 125 121 120 111 97 67 354
309 309 308 297 262 237 223 216 211 205 201 200 200 190 179 183 187 186 186 185 183 179 174 169 164 161 157 152 149 148 146 145 143 139 136 133 129 124 123 121 119 114 301
306 305 300 290 272 250 234 224 215 212 208 202 191 187 186 186 186 186 188 188 184 176 169 164 163 164 163 160 156 152 150 149 148 144 140 136 132 131 131 130 135 271 289
297 302 299 289 274 259 247 231 221 215 210 202 190 184 188 194 191 188 186 181 174 168 162 159 157 155 152 151 152 153 155 159 158 153 148 145 144 148 154 179 234 268 281
292 295 295 290 278 260 246 236 227 220 211 201 193 190 190 191 190 186 179 173 169 165 161 159 158 158 152 145 140 143 145 148 148 147 148 153 158 166 178 203 236 259 272
289 288 289 286 278 264 250 238 229 223 213 203 195 191 187 184 183 179 173 169 164 163 160 156 154 154 153 149 146 148 151 151 150 150 148 149 163 179 197 222 242 261 269
289 286 284 282 275 263 251 240 230 222 215 204 193 187 183 180 177 173 169 165 162 159 156 154 153 151 151 151 153 154 154 154 154 154 152 152 166 192 209 230 251 260 270
Height
1493 1494 1495 1496 1497 1498 1498 1498 1499 1499 1499 1498 1498 1498 1497 1496 1496 1495 1495 1494 1494 1493 1494 1494 1494 1494 1494 1495 1495 1496 1496 1497 1498 1499 1500 1501 1501 1502 1503 1503 1504 1504 1505
1491 1492 1493 1495 1496 1496 1497 1497 1498 1498 1498 1498 1497 1497 1497 1496 1496 1495 1495 1494 1494 1494 1494 1494 1494 1494 1494 1494 1494 1495 1495 1496 1497 1497 1498 1499 1500 1500 1501 1501 1502 1502 1503
1488 1490 1491 1492 1493 1494 1495 1496 1496 1497 1497 1497 1497 1496 1496 1496 1496 1495 1495 1494 1494 1494 1494 1494 1494 1494 1494 1494 1494 1494 1495 1495 1496 1496 1497 1497 1498 1498 1498 1499 1499 1500 1500
1485 1487 1488 1489 1491 1492 1493 1494 1495 1495 1495 1495 1495 1495 1495 1495 1495 1495 1495 1494 1494 1494 1494 1494 1494 1494 1494 1494 1494 1494 1494 1494 1495 1495 1495 1495 1496 1496 1497 1497 1497 1497 1497
1482 1483 1484 1486 1488 1490 1491 1492 1492 1493 1494 1494 1494 1494 1494 1494 1494 1494 1494 1493 1493 1493 1493 1493 1494 1494 1493 1493 1493 1493 1493 1493 1494 1494 1494 1494 1494 1494 1495 1494 1494 1494 1495
1477 1479 1481 1483 1485 1486 1488 1489 1490 1491 1491 1492 1492 1492 1492 1492 1493 1493 1493 1492 1492 1492 1492 1493 1493 1493 1493 1493 1492 1492 1492 1492 1492 1492 1492 1492 1493 1493 1493 1493 1492 1492 1492
1473 1475 1477 1479 1481 1483 1484 1486 1487 1488 1488 1489 1489 1490 1490 1490 1491 1491 1491 1491 1491 1491 1491 1491 1492 1492 1492 1492 1492 1492 1491 1491 1491 1491 1491 1491 1491 1491 1491 1491 1491 1491 1490
1468 1470 1473 1475 1477 1479 1480 1482 1483 1484 1485 1486 1486 1487 1487 1488 1488 1488 1489 1489 1489 1489 1489 1490 1490 1490 1490 1491 1491 1490 1490 1490 1490 1490 1490 1490 1490 1490 1490 1489 1489 1489 1488
1464 1465 1467 1470 1472 1474 1475 1477 1479 1480 1481 1482 1483 1484 1484 1485 1485 1486 1486 1486 1486 1487 1487 1487 1488 1488 1488 1488 1489 1488 1488 1488 1488 1488 1488 1488 1488 1488 1488 1487 1487 1487 1486
1458 1460 1462 1464 1466 1468 1470 1472 1474 1476 1477 1478 1479 1480 1480 1481 1482 1482 1482 1482 1483 1483 1484 1484 1485 1485 1486 1486 1486 1486 1486 1486 1486 1486 1486 1486 1486 1486 1486 1485 1485 1485 1484
1454 1455 1457 1459 1461 1463 1465 1467 1469 1471 1472 1473 1474 1475 1476 1476 1477 1478 1478 1478 1479 1479 1480 1481 1481 1482 1483 1483 1483 1484 1484 1484 1484 1484 1484 1484 1484 1484 1484 1484 1483 1483 1483
1448 1449 1451 1453 1455 1457 1459 1461 1463 1465 1467 1468 1469 1470 1470 1471 1472 1473 1473 1474 1475 1475 1476 1477 1477 1478 1479 1480 1480 1481 1482 1482 1482 1482 1482 1482 1482 1482 1482 1482 1481 1481 1481
1442 1443 1444 1446 1448 1450 1452 1455 1457 1459 1460 1462 1463 1464 1465 1466 1466 1467 1468 1469 1470 1471 1472 1472 1473 1474 1475 1476 1477 1478 1479 1479 1480 1480 1480 1480 1480 1480 1480 1480 1479 1479 1478
1437 1437 1437 1439 1441 1443 1445 1448 1450 1451 1453 1455 1456 1457 1459 1460 1461 1462 1463 1464 1465 1466 1467 1468 1469 1470 1471 1472 1473 1474 1475 1476 1476 1477 1477 1477 1477 1477 1477 1477 1477 1476 1476
1432 1431 1431 1432 1433 1435 1437 1439 1441 1443 1446 1448 1449 1451 1452 1453 1455 1457 1458 1459 1460 1461 1462 1463 1464 1465 1466 1467 1469 1470 1471 1472 1473 1473 1474 1474 1474 1474 1474 1474 1473 1472 1472
1427 1426 1425 1425 1426 1427 1429 1431 1433 1436 1439 1441 1443 1445 1446 1448 1450 1451 1452 1454 1455 1456 1457 1458 1459 1460 1462 1463 1465 1466 1467 1468 1469 1470 1471 1471 1471 1471 1471 1470 1470 1469 1468
1423 1421 1419 1419 1419 1419 1421 1423 1425 1428 1431 1433 1435 1437 1439 1441 1443 1445 1446 1448 1449 1450 1451 1453 1454 1456 1457 1459 1460 1462 1463 1465 1466 1467 1467 1467 1467 1467 1467 1467 1466 1466 1465
1418 1415 1414 1412 1412 1412 1413 1415 1417 1419 1422 1424 1427 1430 1432 1435 1437 1439 1440 1442 1443 1444 1445 1447 1449 1451 1453 1455 1456 1458 1459 1461 1462 1463 1463 1463 1464 1464 1464 1463 1463 1462 1462
1412 1409 1407 1406 1405 1405 1406 1407 1409 1411 1414 1416 1419 1422 1425 1427 1430 1432 1433 1435 1436 1438 1440 1442 1445 1447 1449 1451 1452 1454 1456 1457 1458 1459 1459 1460 1460 1460 1460 1460 1460 1459 1458
1406 1404 1402 1399 1398 1398 1398 1399 1401 1402 1405 1407 1410 1413 1417 1419 1421 1423 1425 1428 1430 1432 1435 1437 1440 1442 1444 1446 1448 1450 1452 1453 1454 1455 1456 1456 1457 1457 1457 1456 1456 1455 1454
1400 1397 1395 1393 1391 1391 1391 1391 1393 1394 1396 1398 1401 1405 1408 1411 1413 1416 1419 1421 1424 1427 1429 1432 1435 1437 1439 1442 1444 1445 1447 1449 1450 1451 1452 1452 1453 1453 1453 1453 1452 1451 1450
1394 1391 1388 1386 1384 1383 1383 1383 1384 1386 1388 1390 1393 1397 1400 1403 1406 1409 1412 1415 1418 1422 1425 1428 1430 1433 1435 1437 1439 1441 1443 1444 1446 1447 1448 1449 1449 1449 1449 1448 1448 1447 1446
1387 1384 1381 1378 1376 1375 1375 1375 1376 1377 1379 1382 1384 1387 1391 1394 1397 1401 1405 1409 1412 1416 1419 1422 1426 1428 1431 1433 1436 1437 1439 1441 1442 1443 1444 1444 1445 1445 1444 1444 1443 1442 1441
1380 1377 1373 1371 1369 1367 1367 1366 1367 1369 1371 1373 1376 1379 1382 1386 1390 1394 1398 1402 1406 1410 1414 1417 1421 1424 1427 1429 1431 1433 1435 1437 1438 1439 1440 1440 1440 1440 1439 1439 1438 1437 1435
1373 1369 1366 1363 1361 1359 1358 1358 1359 1361 1362 1364 1367 1370 1374 1378 1382 1387 1391 1396 1400 1405 1409 1412 1416 1419 1422 1425 1427 1429 1431 1433 1434 1435 1435 1435 1435 1435 1434 1433 1432 1431 1430
1364 1361 1358 1355 1353 1351 1350 1350 1350 1352 1354 1356 1359 1362 1366 1370 1375 1380 1385 1389 1394 1399 1403 1408 1411 1415 1418 1421 1423 1426 1427 1428 1429 1430 1430 1430 1430 1430 1429 1428 1427 1426 1424